Miscellaneous Local Product
Issued by NWS Hastings, NE

Home | Current Version | Previous Version | Graphics & Text | Print | Product List | Glossary On
Versions: 1 2 3 4 5 6 7 8 9 10 11 12 13 14 15 16 17 18 19 20 21 22 23 24 25 26 27 28 29 30 31 32 33 34 35 36 37 38 39 40 41 42 43 44 45 46 47 48 49 50
000
AXUS43 KGID 311902
MISGRI

GID CWA HOURLY WEATHER ROUNDUP
NATIONAL WEATHER SERVICE HASTINGS NE
200 PM CDT THU JUL 31 2014

NOTE: "FAIR" INDICATES FEW OR NO CLOUDS BELOW 12,000 FEET WITH NO
SIGNIFICANT WEATHER AND/OR OBSTRUCTIONS TO VISIBILITY.

...SOUTH CENTRAL NEBRASKA...

CITY           SKY/WX    TMP DP  RH WIND       PRES   REMARKS
GRAND ISLAND   PTSUNNY   88  60  38 SW12      30.06F
HASTINGS       SUNNY     86  54  33 SW8       30.07F
KEARNEY        SUNNY     88  57  35 SW18G24   30.07F
ORD            MOSUNNY   88  51  28 N8        30.03F
YORK           SUNNY     82  63  51 S14       30.07F
AURORA         SUNNY     84  61  44 SW13      30.06F
LEXINGTON      MOSUNNY   87  55  33 NW9       30.08F
HOLDREGE       SUNNY     85  54  33 W12G17    30.09F
HEBRON         SUNNY     83  50  31 S3        30.08F

...NEBRASKA PANHANDLE...

CITY           SKY/WX    TMP DP  RH WIND       PRES   REMARKS
CHADRON        SUNNY     84  47  27 VRB5      30.16F
ALLIANCE       SUNNY     84  41  21 N13       30.19F
SCOTTSBLUFF    SUNNY     84  51  31 VRB6      30.20F
SIDNEY         SUNNY     82  43  25 CALM      30.22F

...WESTERN AND NORTH CENTRAL NEBRASKA...

CITY           SKY/WX    TMP DP  RH WIND       PRES   REMARKS
VALENTINE      SUNNY     86  52  30 NE9       30.11F
AINSWORTH      SUNNY     82  52  35 N12G20    30.10S
ONEILL         PTSUNNY   81  64  55 CALM      30.05F
BROKEN BOW     SUNNY     87  55  33 W15       30.07F
IMPERIAL       SUNNY     82  52  35 NW7       30.17F
NORTH PLATTE   MOSUNNY   86  55  34 W14       30.10F
MCCOOK         SUNNY     86  50  28 SW10      30.13F

...EASTERN NEBRASKA...

CITY           SKY/WX    TMP DP  RH WIND       PRES   REMARKS
NORFOLK        PTSUNNY   82  59  45 S12       30.05F
SO SIOUX CITY  CLOUDY    73  62  68 E5        30.08S
TEKAMAH        MOSUNNY   81  57  43 S6        30.06F
ALBION         MOSUNNY   83  60  45 SW6       30.03F
OMAHA EPPLEY   PTSUNNY   81  55  40 S8        30.08S
OFFUTT AFB     MOSUNNY   80  57  45 NE1       30.07F
MILLARD        MOSUNNY   82  57  42 SE5       30.06F
LINCOLN        SUNNY     85  55  35 SW12      30.07F
NEBRASKA CITY  SUNNY     82  52  35 S7        30.08F
BEATRICE       SUNNY     82  56  41 SE3       30.08F
FALLS CITY     MOSUNNY   83  55  38 CALM      30.08F

...NORTHERN KANSAS...

CITY           SKY/WX    TMP DP  RH WIND       PRES   REMARKS
GOODLAND       MOSUNNY   80  50  34 NW8       30.21F
HILL CITY      PTSUNNY   85  50  29 CALM      30.12F
NORTON         PTCLDY    88  43  20 W8        30.11F
PHILLIPSBURG   SUNNY     84  52  32 CALM      30.10F
SMITH CENTER   PTSUNNY   82  55  39 W3        30.10F
HAYS           MOSUNNY   81  54  39 CALM      30.13F
RUSSELL        MOSUNNY   84  58  40 S15       30.11F
CONCORDIA      SUNNY     83  56  39 VRB3      30.09F
SALINA         MOSUNNY   85  51  31 NE7       30.10F
TOPEKA         MOSUNNY   84  52  33 VRB5      30.09F



USA.gov is the U.S. government's official web portal to all federal, state and local government web resources and services.